When you browse on this site, cookies collect data to enhance your experience and personalize the content and advertising you see.
Visit our Privacy Policy to learn more. By continuing to use the site, you agree to this use of cookies and data.
  • In Romania
  • List of Countries
  • For 7 days
  • Water Temperature
  • Satellite Maps
  • Weather Map
  • Weather Widgets
  • user-avatar
    Login

    Hourly Weather Ambarnyy

    Today, 24 July, Wednesday

    Time Temperature Precipitation Wind Pressure Humidity
    00:00 +15°C° 0 mm 1 mps 754 mmHg 68%
    01:00 +15°C° 0 mm 1 mps 754 mmHg 67%
    02:00 +15°C° 0 mm 1 mps 754 mmHg 66%
    03:00 +15°C° 0 mm 1 mps 754 mmHg 65%
    04:00 +15°C° 0 mm 1 mps 754 mmHg 65%
    05:00 +15°C° 0 mm 1 mps 753 mmHg 64%
    06:00 +16°C° 0 mm 2 mps 753 mmHg 62%
    07:00 +17°C° 0 mm 2 mps 753 mmHg 61%
    08:00 +18°C° 0 mm 2 mps 753 mmHg 59%
    09:00 +18°C° 0 mm 2 mps 753 mmHg 62%
    10:00 +19°C° 0 mm 3 mps 753 mmHg 64%
    11:00 +19°C° 0 mm 3 mps 754 mmHg 67%
    12:00 +18°C° 0 mm 3 mps 754 mmHg 70%
    13:00 +18°C° 0 mm 2 mps 754 mmHg 74%
    14:00 +17°C° 0 mm 2 mps 754 mmHg 77%
    15:00 +18°C° 0 mm 2 mps 754 mmHg 74%
    16:00 +18°C° 0 mm 2 mps 754 mmHg 71%
    17:00 +19°C° 0 mm 1 mps 754 mmHg 68%
    18:00 +19°C° 0 mm 1 mps 754 mmHg 72%
    19:00 +18°C° 0 mm 1 mps 755 mmHg 76%
    20:00 +16°C° 0 mm 1 mps 755 mmHg 81%
    21:00 +15°C° 0 mm 1 mps 755 mmHg 86%
    22:00 +14°C° 0 mm 1 mps 755 mmHg 91%
    23:00 +13°C° 0 mm 2 mps 756 mmHg 97%

    Tomorrow, 25 July, Thursday

    Time Temperature Precipitation Wind Pressure Humidity
    00:00 +13°C° 0 mm 2 mps 756 mmHg 97%
    01:00 +13°C° 0 mm 2 mps 756 mmHg 97%
    02:00 +13°C° 0 mm 2 mps 756 mmHg 97%
    03:00 +14°C° 0 mm 2 mps 756 mmHg 94%
    04:00 +15°C° 0 mm 2 mps 756 mmHg 90%
    05:00 +16°C° 0 mm 2 mps 756 mmHg 86%
    06:00 +17°C° 0 mm 2 mps 757 mmHg 79%
    07:00 +19°C° 0 mm 2 mps 757 mmHg 72%
    08:00 +21°C° 0 mm 2 mps 757 mmHg 65%
    09:00 +23°C° 0 mm 2 mps 757 mmHg 59%
    10:00 +25°C° 0 mm 2 mps 757 mmHg 53%
    11:00 +26°C° 0 mm 2 mps 758 mmHg 47%
    12:00 +27°C° 0 mm 2 mps 758 mmHg 45%
    13:00 +28°C° 0 mm 2 mps 758 mmHg 43%
    14:00 +28°C° 0 mm 2 mps 758 mmHg 40%
    15:00 +28°C° 0 mm 2 mps 758 mmHg 41%
    16:00 +28°C° 0 mm 2 mps 758 mmHg 42%
    17:00 +28°C° 0 mm 2 mps 758 mmHg 43%
    18:00 +26°C° 0 mm 2 mps 758 mmHg 50%
    19:00 +24°C° 0 mm 2 mps 758 mmHg 58%
    20:00 +21°C° 0 mm 2 mps 758 mmHg 66%
    21:00 +20°C° 0 mm 2 mps 758 mmHg 69%
    22:00 +19°C° 0 mm 2 mps 759 mmHg 71%
    23:00 +18°C° 0 mm 2 mps 759 mmHg 74%

    Day after tomorrow, 26 July, Friday

    Time Temperature Precipitation Wind Pressure Humidity
    00:00 +18°C° 0 mm 2 mps 759 mmHg 74%
    01:00 +17°C° 0 mm 2 mps 759 mmHg 73%
    02:00 +17°C° 0 mm 2 mps 759 mmHg 73%
    03:00 +18°C° 0 mm 2 mps 759 mmHg 70%
    04:00 +19°C° 0 mm 2 mps 759 mmHg 68%
    05:00 +19°C° 0 mm 2 mps 759 mmHg 66%
    06:00 +21°C° 0 mm 2 mps 759 mmHg 62%
    07:00 +23°C° 0 mm 2 mps 759 mmHg 58%
    08:00 +25°C° 0 mm 2 mps 759 mmHg 54%
    09:00 +26°C° 0 mm 3 mps 759 mmHg 50%
    10:00 +28°C° 0 mm 3 mps 759 mmHg 46%
    11:00 +29°C° 0 mm 3 mps 758 mmHg 42%
    12:00 +29°C° 0 mm 4 mps 758 mmHg 41%
    13:00 +30°C° 0 mm 4 mps 758 mmHg 41%
    14:00 +30°C° 0 mm 4 mps 757 mmHg 41%
    15:00 +30°C° 0 mm 4 mps 757 mmHg 42%
    16:00 +29°C° 0 mm 3 mps 757 mmHg 44%
    17:00 +29°C° 0 mm 3 mps 756 mmHg 45%
    18:00 +27°C° 0.4 mm 2 mps 756 mmHg 58%
    19:00 +24°C° 0.4 mm 2 mps 756 mmHg 71%
    20:00 +21°C° 0.4 mm 2 mps 756 mmHg 83%
    21:00 +20°C° 0.2 mm 2 mps 757 mmHg 87%
    22:00 +19°C° 0.2 mm 3 mps 757 mmHg 91%
    23:00 +17°C° 0.2 mm 3 mps 757 mmHg 95%

    27 July, Saturday

    Time Temperature Precipitation Wind Pressure Humidity
    00:00 +16°C° 0 mm 3 mps 758 mmHg 95%
    01:00 +14°C° 0 mm 3 mps 758 mmHg 95%
    02:00 +13°C° 0 mm 3 mps 759 mmHg 95%
    03:00 +12°C° 0 mm 3 mps 759 mmHg 93%
    04:00 +12°C° 0 mm 3 mps 759 mmHg 91%
    05:00 +11°C° 0 mm 3 mps 760 mmHg 89%
    06:00 +12°C° 0 mm 2 mps 760 mmHg 86%
    07:00 +12°C° 0 mm 2 mps 760 mmHg 84%
    08:00 +12°C° 0 mm 2 mps 760 mmHg 81%
    09:00 +13°C° 0 mm 2 mps 761 mmHg 77%
    10:00 +13°C° 0 mm 2 mps 761 mmHg 73%
    11:00 +12°C° 0 mm 3 mps 761 mmHg 69%
    12:00 +13°C° 0 mm 3 mps 761 mmHg 66%
    13:00 +13°C° 0 mm 3 mps 761 mmHg 62%
    14:00 +13°C° 0 mm 3 mps 761 mmHg 59%
    15:00 +13°C° 0 mm 3 mps 762 mmHg 58%
    16:00 +12°C° 0 mm 4 mps 762 mmHg 57%
    17:00 +12°C° 0 mm 4 mps 762 mmHg 56%
    18:00 +11°C° 0 mm 4 mps 762 mmHg 58%
    19:00 +10°C° 0 mm 3 mps 762 mmHg 60%
    20:00 +9°C° 0 mm 3 mps 762 mmHg 62%
    21:00 +8°C° 0 mm 2 mps 762 mmHg 67%
    22:00 +7°C° 0 mm 2 mps 762 mmHg 73%
    23:00 +6°C° 0 mm 2 mps 762 mmHg 79%

    28 July, Sunday

    Time Temperature Precipitation Wind Pressure Humidity
    00:00 +6°C° 0 mm 2 mps 762 mmHg 80%
    01:00 +5°C° 0 mm 2 mps 762 mmHg 80%
    02:00 +4°C° 0 mm 2 mps 762 mmHg 81%
    03:00 +5°C° 0 mm 2 mps 762 mmHg 77%
    04:00 +6°C° 0 mm 2 mps 762 mmHg 73%
    05:00 +5°C° 0 mm 3 mps 762 mmHg 69%
    06:00 +7°C° 0 mm 3 mps 762 mmHg 67%
    07:00 +7°C° 0 mm 3 mps 762 mmHg 65%
    08:00 +8°C° 0 mm 2 mps 761 mmHg 64%
    09:00 +8°C° 0 mm 2 mps 761 mmHg 63%
    10:00 +9°C° 0 mm 2 mps 761 mmHg 61%
    11:00 +9°C° 0 mm 2 mps 761 mmHg 60%
    12:00 +10°C° 0 mm 2 mps 760 mmHg 57%
    13:00 +10°C° 0 mm 3 mps 760 mmHg 55%
    14:00 +11°C° 0 mm 3 mps 760 mmHg 52%
    15:00 +11°C° 0 mm 3 mps 760 mmHg 52%
    16:00 +11°C° 0 mm 3 mps 759 mmHg 51%
    17:00 +11°C° 0 mm 3 mps 759 mmHg 51%
    18:00 +10°C° 0 mm 2 mps 759 mmHg 56%
    19:00 +10°C° 0 mm 2 mps 759 mmHg 60%
    20:00 +9°C° 0 mm 2 mps 759 mmHg 65%
    21:00 +8°C° 0 mm 2 mps 758 mmHg 67%
    22:00 +8°C° 0 mm 2 mps 758 mmHg 68%
    23:00 +7°C° 0 mm 2 mps 758 mmHg 70%

    29 July, Monday

    Time Temperature Precipitation Wind Pressure Humidity
    00:00 +6°C° 0 mm 2 mps 758 mmHg 74%
    01:00 +5°C° 0 mm 3 mps 757 mmHg 77%
    02:00 +4°C° 0 mm 3 mps 757 mmHg 81%
    03:00 +5°C° 0 mm 4 mps 757 mmHg 80%
    04:00 +5°C° 0 mm 4 mps 757 mmHg 78%
    05:00 +6°C° 0 mm 5 mps 757 mmHg 76%
    06:00 +6°C° 0.1 mm 5 mps 757 mmHg 74%
    07:00 +5°C° 0.1 mm 6 mps 757 mmHg 72%
    08:00 +5°C° 0.1 mm 6 mps 757 mmHg 70%
    09:00 +7°C° 0.1 mm 6 mps 757 mmHg 65%
    10:00 +7°C° 0.1 mm 6 mps 757 mmHg 59%
    11:00 +8°C° 0.1 mm 6 mps 757 mmHg 54%
    12:00 +8°C° 0 mm 7 mps 757 mmHg 54%
    13:00 +8°C° 0 mm 7 mps 757 mmHg 53%
    14:00 +8°C° 0 mm 7 mps 757 mmHg 53%
    15:00 +8°C° 0.1 mm 6 mps 757 mmHg 56%
    16:00 +8°C° 0.1 mm 6 mps 758 mmHg 59%
    17:00 +8°C° 0.1 mm 5 mps 758 mmHg 62%
    18:00 +7°C° 0.1 mm 5 mps 758 mmHg 65%
    19:00 +7°C° 0.1 mm 4 mps 758 mmHg 68%
    20:00 +6°C° 0.1 mm 4 mps 758 mmHg 71%
    21:00 +6°C° 0.1 mm 4 mps 758 mmHg 74%
    22:00 +5°C° 0.1 mm 4 mps 758 mmHg 76%
    23:00 +5°C° 0.1 mm 3 mps 758 mmHg 78%
    Show more